This is the latest recevied weather packets stored in our database for station/object N5YHM-13. If no packets are shown the sender has not sent any weather packets the latest 10 day(s).
| Time | Temp. | Humidity | Pressure | Rain* | Wind** | Luminosity | Snow |
|---|---|---|---|---|---|---|---|
| 1777848231 | 22.78° C | 49% | 1020 hPa | 0 mm | - | 5 W/m² | - |
| 1777847929 | 22.78° C | 48% | 1020 hPa | 0 mm | - | 5 W/m² | - |
| 1777847626 | 22.78° C | 48% | 1019.9 hPa | 0 mm | - | 5 W/m² | - |
| 1777847322 | 22.78° C | 49% | 1019.8 hPa | 0 mm | - | 5 W/m² | - |
| 1777847020 | 23.33° C | 49% | 1019.9 hPa | 0 mm | - | 5 W/m² | - |
| 1777846718 | 23.33° C | 47% | 1020 hPa | 0 mm | - | 6 W/m² | - |
| 1777846417 | 23.33° C | 48% | 1019.9 hPa | 0 mm | - | 6 W/m² | - |
| 1777846112 | 23.33° C | 49% | 1020.1 hPa | 0 mm | - | 7 W/m² | - |
| 1777845809 | 23.33° C | 48% | 1020.3 hPa | 0 mm | - | 9 W/m² | - |
| 1777845506 | 23.33° C | 47% | 1020.3 hPa | 0 mm | - | 7 W/m² | - |
| 1777845203 | 23.33° C | 49% | 1020.5 hPa | 0 mm | - | 7 W/m² | - |
| 1777844901 | 23.33° C | 49% | 1020.2 hPa | 0 mm | - | 7 W/m² | - |
| 1777844598 | 23.33° C | 47% | 1020.4 hPa | 0 mm | - | 8 W/m² | - |
| 1777844295 | 23.89° C | 48% | 1020.4 hPa | 0 mm | - | 8 W/m² | - |
| 1777843993 | 23.33° C | 48% | 1020.2 hPa | 0 mm | - | 9 W/m² | - |
| 1777843690 | 23.89° C | 47% | 1020.5 hPa | 0 mm | - | 9 W/m² | - |
| 1777843388 | 23.33° C | 46% | 1020.7 hPa | 0 mm | - | 11 W/m² | - |
| 1777843085 | 23.89° C | 44% | 1020.5 hPa | 0 mm | - | 16 W/m² | - |
| 1777842782 | 23.89° C | 43% | 1020.8 hPa | 0 mm | - | 61 W/m² | - |
| 1777842482 | 23.89° C | 42% | 1020.9 hPa | 0 mm | - | 48 W/m² | - |
| 1777842179 | 23.89° C | 41% | 1020.8 hPa | 0 mm | - | 14 W/m² | - |
| 1777841875 | 23.89° C | 44% | 1020.8 hPa | 0 mm | - | 14 W/m² | - |
| 1777841571 | 23.89° C | 43% | 1021.1 hPa | 0 mm | - | 12 W/m² | - |
| 1777841268 | 24.44° C | 42% | 1021.1 hPa | 0 mm | - | 12 W/m² | - |
| 1777840965 | 23.89° C | 41% | 1021.2 hPa | 0 mm | - | 28 W/m² | - |
* Rain latest hour (hover to see other rain measurements)
** Current wind speed in m/s (hover to see current wind gust speed)